TimeMST,TemperatureF,Dew PointF,Humidity,Sea Level PressureIn,VisibilityMPH,Wind Direction,Wind SpeedMPH,Gust SpeedMPH,PrecipitationIn,Events,Conditions,WindDirDegrees,DateUTC
1:50 AM,76,64,59,29.88,2,North,4.5,,,,Clear,0,2013-11-02 08:50:00
4:40 AM,74,68,77,29.94,2,North,6.7,,,,Clear,0,2013-11-02 11:40:00
5:49 AM,71.6,60.8,69,29.90,7.0,Calm,Calm,-,N/A,,Partly Cloudy,0,2013-11-02 12:49:00
7:40 AM,75,68,74,29.86,2,WNW,2.2,,,,Mostly Cloudy,300,2013-11-02 14:40:00
7:40 AM,75.2,66.2,73,29.96,7.0,North,6.9,-,N/A,,Mostly Cloudy,10,2013-11-02 14:40:00
8:40 AM,78.8,64.4,61,29.93,7.0,NNE,10.4,-,N/A,,Mostly Cloudy,30,2013-11-02 15:40:00
9:40 AM,80.6,64.4,58,29.94,7.0,North,11.5,-,N/A,,Mostly Cloudy,10,2013-11-02 16:40:00
10:47 AM,82.4,64.4,54,29.97,10.0,North,13.8,-,N/A,,Mostly Cloudy,10,2013-11-02 17:47:00
10:50 AM,85,68,48,29.91,12,North,6.7,,,,Mostly Cloudy,0,2013-11-02 17:50:00
11:42 AM,82.4,64.4,54,29.90,10.0,North,13.8,-,N/A,,Scattered Clouds,360,2013-11-02 18:42:00
12:40 PM,82.4,60.8,48,29.87,10.0,North,10.4,-,N/A,,Mostly Cloudy,350,2013-11-02 19:40:00
1:40 PM,82.4,62.6,51,29.91,10.0,North,12.7,-,N/A,,Mostly Cloudy,360,2013-11-02 20:40:00
1:50 PM,85,66,43,29.85,12,North,6.7,,,,Mostly Cloudy,0,2013-11-02 20:50:00
3:44 PM,82.4,62.6,51,29.85,10.0,North,11.5,-,N/A,,Overcast,360,2013-11-02 22:44:00
4:45 PM,81,64,48,29.83,16,NNE,6.7,,,,Mostly Cloudy,30,2013-11-02 23:45:00
5:01 PM,80.6,62.6,54,29.96,10.0,NNE,11.5,-,N/A,,Mostly Cloudy,30,2013-11-03 00:01:00
5:46 PM,78.8,64.4,61,29.86,10.0,NNE,6.9,-,N/A,,Mostly Cloudy,30,2013-11-03 00:46:00
6:51 PM,78.8,62.6,57,29.86,10.0,NNE,6.9,-,N/A,,Mostly Cloudy,30,2013-11-03 01:51:00
7:45 PM,79,67,58,29.84,2,North,4.5,,,,Mostly Cloudy,10,2013-11-03 02:45:00
9:00 PM,78.8,64.4,61,29.87,10.0,Calm,Calm,-,N/A,,Mostly Cloudy,0,2013-11-03 04:00:00
9:46 PM,77.0,66.2,69,29.87,10.0,Calm,Calm,-,N/A,,Mostly Cloudy,0,2013-11-03 04:46:00
10:44 PM,77.0,66.2,69,29.99,10.0,Calm,Calm,-,N/A,,Mostly Cloudy,0,2013-11-03 05:44:00
10:50 PM,78,68,63,29.86,2,North,2.2,,,,Mostly Cloudy,0,2013-11-03 05:50:00